SA3VCC-15 Weather Reports


time (UTC)temp
C
wind
direction
speed
KPH
gust
KPH
rain 1hr
cm
rain 24hr
cm
rain mn
cm
humidity
%
barometer
mb
20260506043146 0 0.0 0.0 0.00 0.00 0.00 79 1010.2
20260506041045 0 0.0 0.0 0.00 0.00 0.00 82 1010.1
20260506034945 -1 0.0 0.0 0.00 0.00 0.00 90 1010.0
20260506032845 -2 0.0 0.0 0.00 0.00 0.00 95 1009.7
20260506030745 -3 0.0 0.0 0.00 0.00 0.00 96 1009.6
20260506024645 -3 0.0 0.0 0.00 0.00 0.00 95 1009.5
20260506022545 -3 0.0 0.0 0.00 0.00 0.00 94 1009.4
20260506020445 -3 0.0 0.0 0.00 0.00 0.00 94 1009.2
20260506014345 -3 0.0 0.0 0.00 0.00 0.00 94 1009.1
20260506012245 -3 0.0 0.0 0.00 0.00 0.00 92 1009.0
20260506010145 -3 0.0 0.0 0.00 0.00 0.00 92 1008.8
20260506004045 -3 0.0 0.0 0.00 0.00 0.00 92 1008.5
20260506001945 -2 0.0 0.0 0.00 0.00 0.00 91 1008.3
20260505235845 -2 0.0 0.0 0.00 0.00 0.00 87 1008.1
20260505233745 -1 0.0 0.0 0.00 0.00 0.00 83 1008.0
20260505231645 -1 0.0 0.0 0.00 0.00 0.00 79 1008.0
20260505225545 -1 0.0 0.0 0.00 0.00 0.00 80 1007.8
20260505223444 0 0.0 0.0 0.00 0.00 0.00 77 1007.7
20260505221344 -1 0.0 0.0 0.00 0.00 0.00 79 1007.7
20260505215245 0 0.0 0.0 0.00 0.00 0.00 73 1007.3
20260505213144 0 0.0 0.0 0.00 0.00 0.00 72 1007.3
20260505204944 0 0.0 0.0 0.00 0.00 0.00 72 1006.9
20260505202844 0 0.0 0.0 0.00 0.00 0.00 70 1006.9
20260505200744 1 0.0 0.0 0.00 0.00 0.00 67 1006.7
20260505194644 1 0.0 0.0 0.00 0.00 0.00 62 1006.5
20260505192544 2 0.0 0.0 0.00 0.00 0.00 58 1006.3
20260505190444 4 0.0 0.0 0.00 0.00 0.00 51 1006.1
20260505184344 6 0.0 0.0 0.00 0.00 0.00 42 1006.0
20260505182244 6 0.0 0.0 0.00 0.00 0.00 41 1005.8
20260505180144 7 0.0 0.0 0.00 0.00 0.00 37 1005.5
20260505171944 8 0.0 0.0 0.00 0.00 0.00 39 1005.0
20260505165844 8 0.0 0.0 0.00 0.00 0.00 36 1004.9
20260505163744 13 0.0 0.0 0.00 0.00 0.00 26 1004.8
20260505161644 12 0.0 0.0 0.00 0.00 0.00 30 1004.9
20260505151344 8 0.0 0.0 0.00 0.00 0.00 44 1004.8
20260505124643 10 0.0 0.0 0.00 0.00 0.00 50 1004.5
20260505122543 10 0.0 0.0 0.00 0.00 0.00 46 1004.5
20260505120443 9 0.0 0.0 0.00 0.00 0.00 53 1004.3
20260505114343 7 0.0 0.0 0.00 0.00 0.00 53 1004.3
20260505110143 10 0.0 0.0 0.00 0.00 0.00 38 1003.7
20260505101943 11 0.0 0.0 0.00 0.00 0.00 37 1003.5
20260505095843 13 0.0 0.0 0.00 0.00 0.00 38 1003.4
20260505093743 12 0.0 0.0 0.00 0.00 0.00 40 1003.4
20260505091643 14 0.0 0.0 0.00 0.00 0.00 35 1003.3
20260505085543 13 0.0 0.0 0.00 0.00 0.00 33 1003.2
20260505083443 9 0.0 0.0 0.00 0.00 0.00 43 1003.1
20260505081343 12 0.0 0.0 0.00 0.00 0.00 42 1003.0
20260505075243 11 0.0 0.0 0.00 0.00 0.00 45 1002.9
20260505073143 10 0.0 0.0 0.00 0.00 0.00 49 1002.7
20260505064943 8 0.0 0.0 0.00 0.00 0.00 53 1002.4
20260505062843 7 0.0 0.0 0.00 0.00 0.00 57 1002.4
20260505060743 7 0.0 0.0 0.00 0.00 0.00 61 1002.2
20260505054643 5 0.0 0.0 0.00 0.00 0.00 69 1002.1
20260505052543 3 0.0 0.0 0.00 0.00 0.00 79 1002.0